TimeCST,TemperatureF,Dew PointF,Humidity,Sea Level PressureIn,VisibilityMPH,Wind Direction,Wind SpeedMPH,Gust SpeedMPH,PrecipitationIn,Events,Conditions,WindDirDegrees,DateUTC
12:53 AM,33.1,26.1,75,29.47,10.0,WNW,18.4,-,N/A,,Clear,290,2014-01-19 06:53:00
1:53 AM,33.1,26.1,75,29.47,10.0,WNW,15.0,-,N/A,,Clear,300,2014-01-19 07:53:00
2:53 AM,30.9,24.1,76,29.49,10.0,NW,15.0,-,N/A,,Clear,310,2014-01-19 08:53:00
3:53 AM,28.0,21.9,78,29.50,10.0,NW,11.5,-,N/A,,Clear,310,2014-01-19 09:53:00
4:53 AM,19.9,16.0,85,29.53,10.0,WNW,9.2,-,N/A,,Clear,290,2014-01-19 10:53:00
5:12 AM,21.0,17.1,85,29.49,10.0,West,8.1,-,N/A,,Mostly Cloudy,280,2014-01-19 11:12:00
5:53 AM,26.1,21.9,84,29.51,10.0,NW,5.8,-,N/A,,Overcast,310,2014-01-19 11:53:00
6:53 AM,26.1,21.9,84,29.52,10.0,North,6.9,-,N/A,,Overcast,10,2014-01-19 12:53:00
7:53 AM,26.1,21.9,84,29.52,10.0,Calm,Calm,-,N/A,,Overcast,0,2014-01-19 13:53:00
8:53 AM,24.1,21.0,88,29.51,10.0,Calm,Calm,-,N/A,,Mostly Cloudy,0,2014-01-19 14:53:00
9:24 AM,24.1,21.0,88,29.48,10.0,Calm,Calm,-,N/A,,Overcast,0,2014-01-19 15:24:00
9:53 AM,25.0,21.9,88,29.52,10.0,WNW,4.6,-,N/A,,Overcast,300,2014-01-19 15:53:00
10:31 AM,26.1,21.9,84,29.48,10.0,North,8.1,-,N/A,,Overcast,350,2014-01-19 16:31:00
10:53 AM,26.1,21.9,84,29.51,10.0,NNW,10.4,-,N/A,,Overcast,340,2014-01-19 16:53:00
11:53 AM,24.1,19.9,84,29.53,10.0,North,10.4,-,N/A,,Overcast,350,2014-01-19 17:53:00
12:53 PM,21.9,18.0,85,29.55,10.0,NNW,15.0,-,N/A,,Overcast,330,2014-01-19 18:53:00
1:53 PM,21.0,17.1,85,29.57,3.0,North,11.5,-,0.00,Snow,Light Snow,350,2014-01-19 19:53:00
2:00 PM,21.0,17.1,85,29.53,2.5,NNW,12.7,-,0.00,Snow,Light Snow,340,2014-01-19 20:00:00
2:40 PM,19.9,17.1,89,29.54,2.5,North,13.8,-,0.00,,Overcast,350,2014-01-19 20:40:00
2:44 PM,19.9,17.1,89,29.54,2.5,North,12.7,-,0.00,,Overcast,350,2014-01-19 20:44:00
2:53 PM,19.9,18.0,92,29.59,2.5,North,12.7,-,0.00,,Overcast,350,2014-01-19 20:53:00
3:35 PM,19.9,17.1,89,29.56,6.0,NNW,9.2,-,N/A,,Overcast,340,2014-01-19 21:35:00
3:53 PM,19.0,16.0,88,29.63,10.0,NNW,13.8,-,N/A,,Overcast,340,2014-01-19 21:53:00
4:53 PM,18.0,15.1,88,29.66,7.0,North,13.8,-,N/A,,Overcast,350,2014-01-19 22:53:00
5:53 PM,17.1,12.9,84,29.68,10.0,North,11.5,-,N/A,,Overcast,350,2014-01-19 23:53:00
6:53 PM,16.0,12.0,84,29.70,10.0,NNW,10.4,-,N/A,,Overcast,340,2014-01-20 00:53:00
7:53 PM,15.1,10.9,84,29.71,10.0,NNW,9.2,-,N/A,,Overcast,340,2014-01-20 01:53:00
8:53 PM,12.9,10.0,88,29.75,4.0,North,17.3,-,0.00,Snow,Light Snow,350,2014-01-20 02:53:00
9:12 PM,12.0,9.0,88,29.71,2.5,NNW,13.8,-,0.00,Snow,Light Snow,340,2014-01-20 03:12:00
9:53 PM,10.9,8.1,88,29.78,8.0,NNW,13.8,-,0.00,Snow,Light Snow,340,2014-01-20 03:53:00
10:44 PM,10.0,6.1,84,29.75,10.0,North,17.3,-,0.00,,Overcast,360,2014-01-20 04:44:00
10:53 PM,10.0,6.1,84,29.80,10.0,North,18.4,-,0.00,,Overcast,360,2014-01-20 04:53:00
11:53 PM,7.0,3.0,84,29.84,4.0,North,18.4,-,0.00,Snow,Light Snow,350,2014-01-20 05:53:00